Temp
71 63 60 65 69 67 64 61 59 65 71 66 64 66 72 77 76 74 76 74 76 80 85 86 83 81 80 77 69 69 63 59 56 55 56 60 61 62 61 62 60 59 65 64
64 57 67 70 67 63 61 58 58 64 67 63 64 65 72 74 73 75 76 77 80 81 81 81 80 78 77 75 68 67 62 60 59 59 61 67 68 67 67 65 61 59 61 63
59 65 65 62 62 59 58 56 58 58 63 65 62 61 68 75 75 76 77 77 78 76 78 80 76 76 76 73 69 66 64 60 60 59 61 67 69 65 63 61 61 61 57 60
61 67 61 61 58 61 54 64 61 58 56 51 63 47 60 68 71 69 73 74 76 76 76 78 78 77 76 75 74 65 62 58 59 59 59 60 62 58 61 60 62 60 57 57
60 60 60 58 60 62 57 63 59 56 52 53 55 49 58 67 65 70 71 72 75 75 74 74 76 78 81 78 73 69 63 59 58 56 56 56 59 63 63 62 58 57 56 57
62 68 63 63 63 61 61 57 57 56 52 42 52 48 54 60 65 65 69 70 70 73 73 75 77 74 72 75 72 70 63 61 57 54 54 54 56 58 57 56 54 54 56 56
60 60 65 60 56 59 55 48 35 34 36 36 54 51 56 65 68 64 63 67 68 69 68 66 66 68 69 69 68 65 62 59 56 52 52 52 54 53 52 52 52 51 54 53
48 45 54 56 51 47 45 40 32 25 34 42 54 43 53 67 69 69 68 65 65 65 64 65 65 64 65 64 64 60 60 57 55 52 51 52 52 50 51 51 52 53 53 53
40 44 54 52 53 51 43 36 45 32 34 30 42 51 59 64 63 62 64 65 61 63 62 62 63 64 64 64 63 61 60 58 55 52 51 49 49 49 50 52 53 54 54 55
36 35 49 50 53 53 47 50 35 34 23 24 38 42 45 53 54 55 56 55 60 62 64 65 65 65 65 65 63 61 61 60 57 53 50 48 47 48 48 49 50 52 52 49
39 36 41 48 45 44 45 42 42 40 35 24 23 35 54 48 51 51 55 58 58 60 62 64 65 66 65 64 63 56 54 55 51 49 48 46 44 45 44 46 47 49 46 45
40 38 32 38 48 51 47 41 36 27 26 31 28 28 51 53 54 54 54 57 59 60 61 62 65 63 65 63 63 59 53 52 43 48 45 42 41 41 42 43 42 48 46 44
41 36 28 36 45 47 41 42 41 39 37 27 23 29 51 51 51 53 53 56 57 58 60 61 62 60 60 60 58 56 52 50 45 45 42 41 40 38 38 38 38 42 42 43
40 36 30 26 33 38 33 37 40 37 28 28 30 33 43 46 48 51 53 54 54 58 59 61 61 61 59 58 58 52 49 46 44 43 42 38 39 40 38 36 38 38 40 38
40 29 33 35 36 36 35 35 36 34 35 28 32 35 42 47 49 51 52 53 56 57 59 60 61 62 62 58 58 49 44 42 42 41 39 38 39 39 37 37 38 41 40 39
41 29 33 26 34 36 32 36 38 37 38 36 37 36 50 54 54 52 53 55 55 55 54 56 58 60 57 57 56 49 44 40 40 39 38 38 37 36 36 37 39 41 42 40
35 31 27 23 34 33 26 33 38 39 39 36 30 38 45 45 45 50 52 55 52 54 54 51 53 56 55 54 55 49 42 40 40 39 38 36 36 36 37 40 43 43 43 44
34 33 31 25 31 18 37 47 39 34 39 41 34 38 41 35 40 52 53 52 52 52 53 52 52 54 54 58 57 51 44 40 39 36 36 35 37 39 42 43 43 43 43 43
41 35 27 24 27 33 37 36 34 32 34 35 32 36 35 36 47 48 52 52 51 54 53 55 56 54 54 58 56 50 44 40 35 34 35 36 38 41 42 42 44 44 44 42
42 36 28 27 20 18 36 43 45 44 28 36 33 32 33 37 36 36 52 54 54 56 58 58 57 58 57 55 55 45 42 40 37 36 36 37 39 41 43 45 44 44 43 42
32 31 25 26 23 30 43 42 42 24 28 33 34 33 35 38 43 50 53 55 57 58 59 60 61 59 56 55 54 51 46 40 42 40 37 37 39 40 43 44 45 44 44 42
29 26 26 28 22 20 43 39 25 31 33 36 34 36 38 47 50 53 55 56 58 60 60 61 60 59 57 55 54 52 48 50 45 43 40 35 38 40 40 42 43 43 41 35
26 32 27 28 31 42 43 34 36 36 32 33 34 39 43 46 50 51 54 57 58 59 62 61 60 58 57 56 55 51 47 48 46 41 40 38 35 34 36 34 36 41 40 38
38 41 32 31 37 36 37 40 40 37 37 39 40 43 48 48 50 52 53 56 58 61 61 62 58 56 54 55 52 52 48 43 42 39 38 38 36 33 35 35 36 38 39 39
37 38 32 30 34 37 39 37 38 39 41 40 43 45 46 48 49 50 52 54 57 59 60 61 58 57 53 53 52 47 45 42 39 38 37 35 36 34 33 35 37 39 40 40
40 34 28 27 37 32 35 41 40 37 40 41 41 43 47 45 44 46 49 53 55 57 59 59 58 56 55 51 48 42 38 40 36 34 34 33 35 34 34 35 34 33 35 36
MSLP
1007.57 1007.46 1006.08 1005.69 1005.55 1005.48 1004.84 1004.58 1003.94 1003.66 1003.47 1003.24 1002.46 1001.18 1000.83 1000.60 1000.45 1000.35 1000.07 1000.02 999.79 999.59 999.73 1000.32 1001.20 1002.27 1003.30 1004.58 1005.78 1006.51 1007.93 1008.88 1009.62 1010.59 1011.25 1011.78 1012.42 1013.27 1013.98 1014.53 1015.07 1015.48 1015.69 1016.35
1007.35 1006.37 1006.12 1005.93 1005.90 1005.76 1005.68 1005.13 1004.27 1003.79 1003.71 1003.52 1002.28 1000.09 1000.37 999.98 999.53 999.44 999.15 998.99 998.65 998.74 999.45 999.99 1001.00 1001.91 1002.72 1004.13 1005.73 1006.44 1007.34 1008.21 1008.90 1009.41 1009.89 1010.21 1010.94 1012.00 1012.78 1013.64 1014.64 1015.13 1015.59 1016.05
1006.38 1005.32 1006.08 1006.23 1005.91 1005.79 1005.59 1005.42 1004.87 1004.55 1004.21 1003.80 1002.48 999.06 999.09 998.43 998.90 998.65 998.76 998.69 998.56 999.14 999.28 999.76 1000.94 1001.47 1002.56 1003.35 1004.45 1005.80 1006.61 1007.58 1008.06 1008.75 1009.26 1009.60 1010.62 1011.76 1012.47 1013.30 1013.98 1014.79 1015.52 1015.84
1006.53 1006.06 1006.23 1006.10 1006.09 1005.97 1005.33 1005.20 1005.48 1005.30 1004.82 1003.13 1002.89 1000.29 997.40 998.58 997.90 998.67 998.76 998.74 998.65 999.33 999.83 1000.15 1000.51 1001.19 1001.86 1002.55 1003.67 1005.04 1006.04 1006.89 1007.65 1008.56 1008.81 1008.93 1009.41 1010.29 1011.22 1012.18 1013.16 1014.32 1015.26 1015.51
1005.92 1006.09 1005.89 1005.88 1005.83 1006.21 1005.58 1005.77 1005.98 1006.01 1005.45 1004.56 1002.56 1002.86 996.25 998.45 997.67 997.50 998.14 998.85 999.05 999.75 1000.42 1000.69 1000.87 1000.96 1000.98 1001.70 1002.74 1004.01 1005.33 1006.19 1006.93 1007.63 1008.37 1008.84 1009.63 1010.11 1010.75 1011.64 1012.84 1013.74 1014.97 1015.42
1006.76 1006.80 1006.72 1006.12 1006.50 1006.95 1007.17 1007.31 1006.91 1006.62 1006.24 1004.50 1002.66 1002.84 997.52 997.70 997.59 998.50 998.90 999.78 1000.22 1000.19 1000.39 1000.53 1000.72 1001.27 1001.43 1001.74 1002.42 1003.21 1004.39 1005.13 1005.97 1006.69 1007.43 1008.14 1008.67 1009.50 1010.45 1011.53 1012.52 1013.27 1014.28 1015.16
1006.92 1006.99 1006.75 1007.49 1007.09 1007.71 1008.36 1008.50 1008.69 1007.59 1006.35 1004.23 1002.95 1001.09 997.91 997.80 998.33 999.27 1000.04 1000.49 1000.95 1001.20 1001.33 1001.78 1001.92 1001.91 1001.78 1001.97 1002.57 1003.34 1004.16 1005.08 1006.18 1006.47 1006.79 1007.31 1007.84 1008.86 1009.80 1010.87 1011.96 1012.92 1013.87 1014.72
1008.24 1007.77 1008.18 1008.87 1008.96 1009.21 1010.08 1011.37 1010.98 1009.24 1007.14 1004.71 1003.23 1001.27 998.24 998.27 998.88 999.57 1000.15 1001.34 1001.74 1001.94 1002.04 1002.17 1002.33 1002.59 1002.46 1002.52 1002.91 1003.64 1004.03 1004.65 1005.73 1006.52 1006.86 1007.19 1007.63 1008.29 1009.30 1010.07 1011.02 1012.04 1013.07 1014.13
1011.52 1009.78 1009.78 1010.28 1010.42 1010.72 1011.11 1011.53 1011.88 1011.33 1009.99 1008.53 1004.81 1002.57 1000.25 1000.01 999.97 1000.77 1000.90 1001.21 1002.15 1002.28 1002.47 1002.61 1002.42 1002.21 1002.56 1002.68 1002.96 1003.53 1003.78 1004.20 1004.99 1005.93 1006.66 1007.16 1007.76 1008.17 1008.68 1009.58 1010.39 1011.41 1012.50 1013.57
1014.93 1013.10 1011.16 1011.05 1011.13 1011.01 1011.25 1011.83 1011.82 1012.10 1010.74 1008.32 1005.16 1003.29 1000.61 1000.87 1001.19 1002.06 1002.25 1002.48 1002.29 1002.22 1001.96 1001.92 1002.02 1001.86 1001.85 1002.29 1002.81 1003.39 1003.62 1003.61 1004.40 1005.36 1006.13 1006.86 1007.44 1008.03 1008.57 1009.56 1010.33 1010.80 1012.15 1013.74
1016.48 1015.54 1012.65 1011.87 1011.56 1011.40 1011.45 1011.89 1012.39 1012.55 1012.00 1010.07 1007.71 1004.40 1002.65 1003.27 1003.31 1003.14 1002.78 1002.53 1002.46 1002.27 1001.73 1001.42 1001.32 1001.30 1001.58 1001.84 1001.96 1003.12 1003.55 1003.64 1004.42 1005.39 1005.94 1006.83 1007.50 1008.19 1009.03 1009.82 1011.42 1011.16 1012.21 1013.59
1017.57 1016.50 1014.02 1012.65 1012.36 1011.78 1012.11 1012.63 1013.84 1013.94 1012.83 1011.63 1009.87 1006.62 1005.84 1004.57 1003.65 1003.34 1002.86 1002.71 1001.93 1001.39 1000.81 1000.47 1000.17 1000.77 1000.63 1000.79 1001.32 1002.04 1003.15 1003.48 1004.17 1005.14 1005.90 1006.83 1007.23 1008.38 1009.09 1010.37 1011.52 1012.13 1012.74 1013.30
1017.91 1017.00 1015.27 1011.68 1011.50 1012.09 1012.48 1013.23 1013.77 1013.75 1013.41 1011.67 1010.73 1005.73 1006.13 1005.73 1004.91 1004.06 1003.19 1002.25 1001.39 1000.49 999.71 999.51 999.24 1000.09 1000.54 1000.06 1000.88 1001.49 1002.78 1003.64 1004.28 1005.02 1005.91 1006.47 1007.13 1008.02 1009.14 1010.38 1011.59 1012.53 1013.62 1014.25
1018.66 1017.76 1016.97 1015.23 1013.75 1014.50 1013.43 1013.61 1013.49 1013.51 1012.61 1011.35 1009.93 1007.28 1005.15 1005.19 1004.42 1003.42 1002.73 1002.42 1001.34 1000.03 999.07 998.59 998.47 998.90 999.60 1000.10 1000.51 1001.59 1002.57 1003.45 1004.06 1004.84 1005.62 1006.20 1006.90 1007.72 1008.67 1009.94 1011.18 1012.62 1013.20 1014.60
1018.06 1017.56 1017.20 1016.39 1015.29 1014.64 1013.90 1012.97 1012.41 1012.45 1011.82 1011.11 1009.05 1007.09 1005.37 1004.62 1003.51 1002.72 1002.03 1001.46 1000.14 999.38 998.86 998.32 998.00 998.02 998.43 999.48 1000.20 1001.65 1002.72 1003.32 1003.72 1004.58 1005.43 1006.21 1007.15 1007.77 1008.62 1009.93 1011.41 1012.83 1013.64 1014.83
1017.82 1017.49 1017.00 1016.13 1015.41 1014.43 1012.89 1011.79 1011.31 1011.02 1010.71 1010.10 1009.11 1006.42 1005.28 1003.63 1003.11 1002.34 1001.14 1000.47 999.93 999.52 999.36 999.01 998.69 998.50 998.84 999.41 1000.26 1001.42 1002.63 1003.36 1003.90 1004.72 1005.45 1006.21 1007.00 1007.95 1008.71 1009.91 1011.68 1012.45 1013.43 1014.54
1017.28 1017.12 1016.89 1015.35 1014.60 1013.41 1012.06 1010.49 1010.16 1010.02 1010.26 1010.02 1008.90 1007.66 1006.17 1004.87 1003.89 1001.95 1001.11 1000.40 1000.23 1000.02 999.99 1000.41 999.77 999.52 999.92 1000.07 1000.29 1001.19 1002.46 1003.27 1003.93 1004.36 1005.26 1006.51 1007.45 1008.05 1008.87 1009.94 1010.90 1011.78 1012.79 1013.97
1016.46 1016.37 1016.34 1015.13 1013.87 1012.11 1010.13 1009.93 1010.76 1010.84 1010.35 1009.81 1009.85 1008.64 1007.31 1006.24 1004.34 1002.11 1001.58 1001.06 1000.80 1000.74 1000.45 1000.41 1000.41 1000.25 1000.08 999.88 999.95 1001.14 1002.45 1003.34 1004.13 1004.60 1005.17 1006.21 1007.40 1007.99 1008.94 1009.88 1010.74 1011.67 1012.67 1013.43
1015.29 1015.68 1015.17 1014.35 1012.57 1011.21 1010.54 1010.80 1011.22 1010.74 1008.38 1010.39 1010.29 1009.28 1007.69 1005.87 1003.47 1002.48 1002.28 1001.61 1001.44 1001.12 1000.98 1000.68 1000.47 1000.39 1000.14 999.81 999.75 1000.86 1002.23 1003.21 1004.16 1005.10 1005.18 1005.61 1006.75 1007.46 1008.42 1009.44 1010.49 1011.40 1012.23 1013.37
1014.37 1015.16 1015.27 1014.02 1012.74 1011.06 1009.75 1010.24 1011.00 1010.53 1009.13 1010.29 1010.64 1009.55 1008.36 1006.27 1004.09 1003.84 1002.36 1001.92 1001.34 1000.94 1000.61 1000.37 1000.41 1000.23 1000.23 1000.29 1000.24 1001.35 1002.11 1002.92 1003.70 1004.36 1005.45 1005.64 1006.48 1007.16 1007.98 1009.14 1010.37 1011.61 1012.55 1013.51
1013.82 1014.12 1013.97 1013.34 1012.22 1011.11 1010.63 1011.38 1011.40 1011.16 1011.13 1010.66 1010.38 1009.33 1007.88 1005.99 1004.72 1003.51 1002.46 1001.67 1001.05 1000.74 1000.44 1000.34 999.95 1000.00 1000.30 1000.51 1000.82 1001.16 1002.08 1002.96 1003.69 1004.47 1005.31 1006.46 1006.97 1007.32 1007.99 1009.19 1010.37 1011.46 1012.46 1013.68
1013.88 1013.75 1013.50 1012.82 1012.08 1011.37 1011.46 1011.83 1013.24 1012.75 1011.60 1011.27 1010.22 1009.09 1007.57 1005.87 1004.32 1003.06 1002.07 1001.34 1000.73 1000.11 999.98 1000.05 999.89 999.94 1000.26 1000.69 1000.90 1001.21 1001.90 1002.61 1003.85 1004.76 1005.52 1006.30 1007.17 1007.59 1008.52 1009.47 1010.80 1011.82 1012.96 1014.26
1013.99 1013.80 1013.59 1013.35 1011.74 1011.20 1011.70 1012.68 1013.00 1012.92 1012.07 1010.62 1009.85 1008.44 1007.10 1005.60 1004.12 1003.17 1002.15 1001.22 1000.60 1000.18 999.79 999.82 999.92 1000.03 1000.20 1000.57 1000.92 1001.35 1002.09 1002.83 1003.70 1004.72 1005.49 1006.46 1007.54 1008.15 1009.12 1009.77 1011.01 1011.93 1012.85 1013.95
1013.18 1013.31 1013.37 1013.35 1012.05 1012.11 1012.19 1012.20 1012.32 1012.14 1011.33 1010.21 1009.11 1007.96 1006.41 1005.22 1004.00 1002.93 1002.09 1001.18 1000.45 999.86 999.66 999.51 999.96 1000.17 1000.46 1000.76 1001.23 1001.61 1002.53 1003.36 1004.07 1004.79 1005.52 1006.55 1007.56 1008.62 1009.46 1010.27 1011.08 1011.73 1012.46 1013.43
1013.25 1013.21 1013.03 1012.81 1012.57 1012.35 1011.82 1012.12 1011.78 1011.26 1010.47 1009.58 1008.57 1007.61 1006.58 1005.62 1004.45 1003.54 1002.34 1001.34 1000.63 1000.01 999.74 999.60 999.64 999.87 1000.49 1000.88 1001.34 1002.41 1003.10 1003.93 1004.56 1005.17 1006.02 1006.82 1007.72 1008.59 1009.18 1010.44 1011.00 1011.79 1012.42 1012.97
1012.53 1012.13 1012.56 1012.08 1012.14 1012.56 1011.67 1011.13 1011.31 1010.96 1009.88 1009.41 1008.81 1007.69 1006.83 1006.36 1005.56 1004.44 1003.15 1001.88 1000.97 1000.23 999.90 999.70 999.72 1000.02 1000.41 1001.16 1001.68 1002.90 1003.39 1003.99 1004.87 1005.51 1006.29 1007.05 1007.81 1008.60 1009.41 1010.53 1011.55 1012.33 1012.79 1013.53
Wind_Speed
11 12 17 18 18 20 21 20 22 20 18 19 21 24 20 17 16 20 19 19 19 19 15 14 12 14 16 15 14 20 19 17 14 11 11 12 12 11 10 9 11 11 11 13
14 18 19 19 17 19 21 22 21 19 17 12 17 29 23 25 22 21 19 18 17 12 10 8 10 13 16 17 17 20 19 19 16 12 12 13 13 12 11 10 12 9 13 13
17 12 2 5 12 20 19 20 19 19 17 16 22 32 19 16 13 20 18 14 15 8 9 6 10 12 14 18 19 20 20 20 17 17 11 11 12 10 11 12 11 12 10 13
10 10 11 13 16 12 17 13 15 16 16 18 13 23 30 20 14 5 9 12 9 6 4 4 5 10 14 16 17 17 17 17 16 16 14 18 16 15 12 13 12 12 12 12
5 7 10 11 11 8 14 12 11 12 13 19 22 15 36 14 24 15 4 1 1 4 4 6 8 10 10 12 15 17 18 18 18 18 17 14 15 13 11 11 15 13 12 12
16 8 9 11 8 7 8 13 16 15 11 20 25 16 30 19 12 1 5 7 8 12 16 16 13 9 10 10 13 15 17 18 19 19 19 19 19 16 14 14 12 11 11 10
12 16 13 6 11 6 7 6 5 6 8 15 17 13 21 17 19 7 5 11 12 14 12 12 12 12 9 9 11 11 15 17 17 18 18 19 18 18 18 17 13 14 12 11
13 13 3 6 4 5 4 7 4 7 11 15 19 15 19 17 19 15 16 10 8 7 6 7 8 9 8 6 9 12 15 17 18 18 17 16 17 13 13 16 12 12 12 12
6 6 1 6 4 4 3 6 10 7 12 15 14 22 27 25 15 7 16 17 12 12 10 10 9 5 7 7 10 13 15 17 17 17 15 15 14 15 14 15 15 13 14 13
3 10 1 3 7 7 6 2 4 4 6 9 14 23 20 27 22 23 21 17 19 19 19 17 13 9 6 8 9 12 16 18 18 18 15 14 14 13 11 12 14 16 16 14
1 5 6 12 5 10 6 10 11 14 14 13 18 16 12 17 24 24 20 23 25 29 27 23 18 14 9 10 9 10 13 13 13 13 13 13 11 11 12 12 9 14 15 14
4 7 15 22 24 22 16 12 3 3 9 16 16 21 22 29 22 25 31 32 32 29 28 23 23 17 15 12 12 12 11 11 10 14 15 15 14 13 13 9 13 13 16 14
4 5 14 16 9 7 7 18 19 21 18 23 21 20 20 28 30 31 31 31 30 29 26 22 15 17 18 12 12 11 11 13 12 13 14 15 15 17 16 16 13 13 9 11
1 8 12 14 21 18 25 23 21 20 17 21 23 34 34 32 30 29 28 26 27 25 21 20 16 16 14 12 11 12 11 11 12 12 13 14 16 17 15 15 15 13 14 11
6 11 14 17 21 24 26 28 27 25 25 24 28 34 33 29 26 24 23 22 21 19 17 15 15 14 10 10 11 9 8 7 9 11 11 11 11 13 17 16 15 15 15 14
6 10 11 17 22 22 25 28 27 25 22 20 24 33 27 21 22 23 22 16 17 16 12 12 9 8 5 6 6 7 9 10 12 11 10 11 12 13 16 16 18 16 16 16
13 11 8 17 18 18 17 14 10 14 17 21 22 24 23 24 26 22 17 15 10 7 10 13 13 10 12 9 9 5 9 10 9 14 14 13 12 15 16 18 18 17 18 18
12 12 11 12 16 19 14 15 6 12 20 22 14 23 22 24 27 17 8 10 11 10 8 3 4 6 7 10 7 7 11 11 8 11 15 16 14 17 18 18 18 18 17 17
17 15 9 8 12 19 19 3 10 18 30 6 16 26 26 25 11 10 7 10 7 6 6 6 7 6 8 10 5 9 9 11 10 9 12 15 15 16 18 18 19 18 17 15
11 12 7 11 15 18 10 9 19 24 16 12 21 22 21 18 3 4 16 8 5 5 5 7 5 5 6 7 4 9 8 10 12 12 10 13 14 16 17 19 18 15 15 15
8 10 13 13 17 13 11 16 16 8 9 25 24 21 18 14 10 14 14 12 7 6 7 8 8 7 7 5 0 4 9 9 9 11 13 12 13 15 15 17 16 16 15 15
12 9 11 14 10 10 9 20 7 11 24 24 23 18 20 20 17 15 13 10 10 10 6 7 7 7 6 3 1 1 4 8 12 13 14 13 12 11 13 17 15 15 15 14
10 8 9 8 10 19 21 5 16 20 21 23 15 17 16 18 17 15 14 12 9 9 10 6 7 6 6 5 3 0 2 6 12 13 14 14 14 11 14 15 14 13 15 13
13 11 11 14 9 10 19 20 18 14 18 17 13 17 16 16 17 16 13 12 10 8 8 8 5 6 5 3 2 1 6 8 10 12 13 14 14 14 13 11 11 10 11 11
12 13 17 17 16 16 15 11 17 23 20 16 17 17 15 16 17 16 15 14 12 10 8 7 6 6 7 5 4 5 8 11 11 11 11 12 12 13 13 10 11 11 11 11
13 15 11 12 13 11 21 21 24 20 15 14 16 19 18 16 18 20 16 13 10 9 8 7 6 6 6 7 6 7 8 11 11 10 10 10 11 11 10 10 7 6 8 9
Wind_Direction
232 249 236 250 253 268 282 276 276 278 282 281 278 276 280 281 275 274 268 263 260 258 258 252 221 216 211 207 193 196 184 171 158 163 168 174 182 176 176 180 174 176 174 178
238 242 257 270 272 265 265 270 271 278 275 285 280 281 292 286 278 281 283 279 282 277 262 248 220 210 202 202 201 202 190 179 180 178 183 185 184 182 177 175 174 177 176 174
242 260 161 286 281 248 255 260 271 275 295 280 271 280 278 290 277 276 269 275 280 283 273 228 205 204 209 211 207 207 197 187 185 183 183 180 174 172 176 176 174 175 182 178
263 275 271 264 256 260 271 279 270 273 284 284 323 299 289 290 285 237 239 278 301 294 245 241 217 215 216 222 210 203 198 188 186 183 180 180 180 180 185 175 170 168 175 174
247 275 277 267 275 265 273 319 284 291 281 287 264 271 280 276 286 289 34 39 352 55 41 334 291 273 257 230 216 206 197 189 186 183 183 179 189 192 172 174 162 166 172 177
270 307 274 291 306 286 309 284 286 266 260 257 275 242 271 290 295 96 281 329 346 328 321 321 323 311 278 250 225 209 203 195 186 183 184 184 190 181 173 174 174 162 172 171
279 278 285 350 272 151 353 3 285 262 231 254 270 255 251 282 297 10 338 300 314 314 326 333 324 315 294 258 231 221 211 202 197 188 187 184 179 173 174 172 176 159 171 178
286 283 357 39 45 12 76 175 255 274 265 278 302 264 257 290 317 309 322 354 341 334 327 321 340 334 314 273 237 220 217 208 199 195 190 189 180 170 172 174 171 174 171 174
307 238 32 83 29 13 105 237 252 267 255 265 258 273 275 277 292 331 308 327 329 323 326 318 318 318 303 271 244 229 220 214 198 196 186 186 177 178 175 174 168 170 165 164
60 289 250 83 332 178 213 324 276 220 266 249 276 290 281 301 331 334 319 315 313 318 315 306 293 294 297 279 259 250 237 224 203 194 189 184 175 173 166 163 168 162 155 165
316 241 290 311 274 330 269 263 251 269 257 264 267 264 304 328 310 306 305 307 308 303 297 291 281 288 274 269 242 229 234 229 195 192 178 173 160 157 152 162 167 159 142 149
40 304 289 292 285 267 269 303 70 287 305 290 282 273 292 297 310 304 307 302 296 298 294 286 276 261 263 245 240 236 229 204 180 182 169 165 146 142 147 147 138 152 149 142
2 295 310 307 162 123 306 312 298 293 283 274 283 279 297 290 291 293 294 304 304 301 296 283 271 263 276 247 231 224 219 206 182 179 174 164 155 151 151 144 138 133 135 145
195 249 247 268 289 305 290 289 286 279 276 282 272 285 282 292 292 292 294 301 290 291 298 290 283 263 252 242 236 212 210 194 181 177 173 166 164 163 148 138 144 146 147 146
230 262 268 274 282 287 286 288 283 278 279 278 286 282 289 295 297 290 289 302 308 309 309 304 282 275 254 247 237 186 173 152 149 152 153 153 149 143 137 139 143 153 148 148
224 268 277 279 278 276 283 283 285 286 281 285 286 287 282 298 307 296 309 307 317 326 341 345 337 321 288 250 233 179 185 166 149 139 134 138 138 144 140 139 154 152 151 151
258 255 255 275 284 291 277 274 289 308 311 309 312 315 333 320 317 304 311 313 336 358 35 4 4 30 359 332 290 180 165 154 171 147 143 141 150 147 146 151 153 152 154 157
245 234 255 265 281 271 285 331 346 305 304 319 323 333 333 324 295 296 358 8 10 8 18 352 287 301 283 283 272 196 151 156 152 147 149 142 154 149 148 152 153 152 154 151
219 238 257 261 278 297 291 84 342 324 309 9 335 331 332 312 317 76 33 347 314 343 340 348 338 326 313 322 311 163 153 143 136 157 152 148 151 151 149 157 158 154 150 144
227 217 231 271 282 284 306 10 343 321 273 1 334 324 307 310 12 313 331 325 328 316 338 353 5 342 341 352 128 145 161 164 161 162 160 147 159 152 156 157 156 155 151 147
231 232 258 265 271 283 295 359 335 276 344 326 316 310 305 332 339 306 308 317 320 307 331 343 354 14 11 23 0 206 168 183 172 152 142 156 157 152 149 153 155 156 151 146
280 280 274 266 259 272 1 344 341 308 299 302 304 305 309 319 323 330 330 321 325 315 327 334 338 0 33 40 340 217 201 161 158 164 155 142 148 141 142 147 149 150 147 139
261 250 296 304 302 320 317 314 296 291 285 290 287 297 314 312 315 320 320 321 324 316 320 308 309 331 343 357 344 140 164 174 152 156 160 150 140 145 142 137 149 154 150 152
272 259 271 290 280 299 309 298 300 310 312 315 308 320 331 332 325 317 309 307 309 309 310 313 266 264 262 287 312 355 155 159 161 156 154 152 147 146 147 143 152 153 158 163
275 282 268 273 281 290 274 295 310 321 318 322 332 331 334 336 337 339 318 307 309 305 307 295 271 248 237 225 199 156 154 159 158 154 149 149 148 148 143 150 159 169 167 170
270 268 257 263 271 301 292 307 315 308 315 340 336 332 339 346 335 334 333 325 313 314 314 306 292 265 219 209 201 161 151 161 151 146 145 150 150 148 144 146 128 104 135 135